Weather History for LTFE - October, 2012

Change the Weather History Date:

Wednesday, October 10, 2012

  Actual Average Record
Temperature  
Mean Temperature 68 °F -  
Max Temperature 78 °F - - ()
Min Temperature 57 °F - - ()
Cooling Degree Days 2    
Growing Degree Days 18 (Base 50)    
Moisture  
Dew Point 56 °F    
Average Humidity 73    
Maximum Humidity 94    
Minimum Humidity 42    
Precipitation  
Precipitation 0.00 in - - ()
Sea Level Pressure  
Sea Level Pressure 29.81 in    
Wind  
Wind Speed 4 mph ()    
Max Wind Speed 15 mph    
Max Gust Speed -    
Visibility 6.1 miles    
Events Rain , Thunderstorm    
T = Trace of Precipitation, MM = Missing Value Source: Averaged Metar Reports

Daily Weather History Graph

Daily Weather History Graph

Search for Another Location

Airport or City:

Trip Planner

Search our weather history database for the weather conditions in past years. The results will help you decide how hot, cold, wet, or windy it might be!

Date:

Astronomy

Oct. 10, 2012 Rise Set
Actual Time 7:12 AM EEST 6:39 PM EEST
Civil Twilight 6:46 AM EEST 7:05 PM EEST
Nautical Twilight 6:16 AM EEST 7:35 PM EEST
Astronomical Twilight 5:46 AM EEST 8:05 PM EEST
Moon 1:36 AM EEST (10/10) 3:24 PM EEST (10/10)
Length of Visible Light 12h 18m
Length of Day
11h 26m
Waning Crescent, 30% of the Moon is Illuminated
Oct 10
Waning Crescent
Oct 15
New
Oct 22
First Quarter
Oct 29
Full
Nov 7
Last Quarter

Hourly Weather History & Observations

Time (EEST) Temp. Dew Point Humidity Pressure Visibility Wind Dir Wind Speed Gust Speed Precip Events Conditions
12:20 AM 62.6 °F 57.2 °F 82% 29.80 in 6.2 mi SE 3.5 mph - N/A   Mostly Cloudy
12:50 AM 62.6 °F 55.4 °F 77% 29.80 in 6.2 mi SE 4.6 mph - N/A   Mostly Cloudy
1:20 AM 60.8 °F 55.4 °F 82% 29.83 in 6.2 mi Variable 2.3 mph - N/A   Mostly Cloudy
1:50 AM 62.6 °F 55.4 °F 77% 29.83 in 6.2 mi SE 4.6 mph - N/A   Mostly Cloudy
2:20 AM 62.6 °F 55.4 °F 77% 29.83 in 6.2 mi SSE 4.6 mph - N/A   Mostly Cloudy
2:50 AM 62.6 °F 53.6 °F 72% 29.83 in 6.2 mi Variable 1.2 mph - N/A   Scattered Clouds
3:20 AM 60.8 °F 55.4 °F 82% 29.80 in 6.2 mi East 2.3 mph - N/A   Scattered Clouds
3:50 AM 62.6 °F 53.6 °F 72% 29.80 in 6.2 mi SSE 3.5 mph - N/A   Scattered Clouds
4:20 AM 60.8 °F 53.6 °F 77% 29.80 in 6.2 mi ESE 4.6 mph - N/A   Scattered Clouds
4:50 AM 60.8 °F 53.6 °F 77% 29.80 in 6.2 mi East 3.5 mph - N/A   Scattered Clouds
5:20 AM 59.0 °F 53.6 °F 82% 29.80 in 6.2 mi Variable 2.3 mph - N/A   Scattered Clouds
5:50 AM 57.2 °F 51.8 °F 82% 29.80 in 6.2 mi ESE 4.6 mph - N/A   Scattered Clouds
6:20 AM 57.2 °F 51.8 °F 82% 29.80 in 6.2 mi SE 3.5 mph - N/A   Mostly Cloudy
6:50 AM 57.2 °F 51.8 °F 82% 29.80 in 6.2 mi East 3.5 mph - N/A   Mostly Cloudy
7:20 AM 57.2 °F 51.8 °F 82% 29.80 in 6.2 mi East 3.5 mph - N/A   Mostly Cloudy
7:50 AM 57.2 °F 51.8 °F 82% 29.80 in 6.2 mi Variable 2.3 mph - N/A   Mostly Cloudy
8:20 AM 59.0 °F 51.8 °F 77% 29.80 in 6.2 mi SE 4.6 mph - N/A   Mostly Cloudy
8:50 AM 60.8 °F 51.8 °F 72% 29.80 in 6.2 mi Calm Calm - N/A   Mostly Cloudy
9:20 AM 64.4 °F 51.8 °F 64% 29.80 in 6.2 mi SE 4.6 mph - N/A   Mostly Cloudy
9:50 AM 66.2 °F 53.6 °F 64% 29.83 in 6.2 mi East 3.5 mph - N/A   Mostly Cloudy
10:20 AM 68.0 °F 53.6 °F 60% 29.80 in 6.2 mi NE 3.5 mph - N/A   Mostly Cloudy
10:50 AM 71.6 °F 53.6 °F 53% 29.80 in 6.2 mi Variable 2.3 mph - N/A   Mostly Cloudy
11:20 AM 75.2 °F 51.8 °F 44% 29.80 in 6.2 mi Variable 1.2 mph - N/A   Mostly Cloudy
11:50 AM 77.0 °F 53.6 °F 44% 29.80 in 6.2 mi NW 3.5 mph - N/A   Mostly Cloudy
12:20 PM 78.8 °F 53.6 °F 42% 29.80 in 6.2 mi NW 4.6 mph - N/A   Mostly Cloudy
12:50 PM 78.8 °F 53.6 °F 42% 29.80 in 6.2 mi WNW 6.9 mph - N/A Thunderstorm Thunderstorm
1:20 PM 75.2 °F 55.4 °F 50% 29.80 in 6.2 mi South 12.7 mph - N/A Thunderstorm Thunderstorm
1:50 PM 73.4 °F 55.4 °F 53% 29.80 in 6.2 mi SSW 10.4 mph - N/A Thunderstorm Thunderstorm
2:20 PM 75.2 °F 59.0 °F 57% 29.80 in 6.2 mi South 12.7 mph - N/A Thunderstorm Thunderstorm
2:50 PM 77.0 °F 59.0 °F 54% 29.80 in 6.2 mi SE 9.2 mph - N/A Thunderstorm Thunderstorm
3:20 PM 77.0 °F 59.0 °F 54% 29.80 in 6.2 mi South 6.9 mph - N/A Thunderstorm Thunderstorm
3:50 PM 78.8 °F 57.2 °F 47% 29.80 in 6.2 mi SSW 4.6 mph - N/A Thunderstorm Thunderstorm
4:20 PM 77.0 °F 57.2 °F 50% 29.80 in 6.2 mi Variable 4.6 mph - N/A Thunderstorm Thunderstorm
4:50 PM 71.6 °F 55.4 °F 57% 29.80 in 6.2 mi ENE 15.0 mph - N/A Rain , Thunderstorm Light Thunderstorms and Rain
5:20 PM 62.6 °F 59.0 °F 88% 29.80 in 2.5 mi ESE 9.2 mph - N/A Rain , Thunderstorm Light Thunderstorms and Rain
5:50 PM 64.4 °F 60.8 °F 88% 29.80 in 6.2 mi ESE 8.1 mph - N/A Rain , Thunderstorm Light Thunderstorms and Rain
6:20 PM 64.4 °F 60.8 °F 88% 29.80 in 6.2 mi SSE 3.5 mph - N/A Thunderstorm Thunderstorm
6:50 PM 64.4 °F 60.8 °F 88% 29.83 in 6.2 mi Variable 2.3 mph - N/A Thunderstorm Thunderstorm
7:20 PM 66.2 °F 60.8 °F 83% 29.83 in 6.2 mi West 4.6 mph - N/A Rain , Thunderstorm Light Thunderstorms and Rain
7:50 PM 64.4 °F 60.8 °F 88% 29.83 in 6.2 mi Variable 1.2 mph - N/A Rain , Thunderstorm Light Thunderstorms and Rain
8:20 PM 64.4 °F 60.8 °F 88% 29.83 in 6.2 mi East 6.9 mph - N/A Rain , Thunderstorm Light Thunderstorms and Rain
8:50 PM 64.4 °F 60.8 °F 88% 29.83 in 6.2 mi ESE 5.8 mph - N/A Rain , Thunderstorm Light Thunderstorms and Rain
9:20 PM 64.4 °F 60.8 °F 88% 29.83 in 6.2 mi SE 6.9 mph - N/A Rain , Thunderstorm Light Thunderstorms and Rain
9:50 PM 62.6 °F 60.8 °F 94% 29.83 in 6.2 mi ESE 4.6 mph - N/A Thunderstorm Thunderstorm
10:20 PM 62.6 °F 60.8 °F 94% 29.83 in 6.2 mi East 3.5 mph - N/A Thunderstorm Thunderstorm
10:50 PM 62.6 °F 60.8 °F 94% 29.83 in 6.2 mi East 4.6 mph - N/A   Mostly Cloudy
11:20 PM 62.6 °F 60.8 °F 94% 29.83 in 6.2 mi Variable 1.2 mph - N/A   Mostly Cloudy
11:50 PM 62.6 °F 60.8 °F 94% 29.83 in 6.2 mi East 2.3 mph - N/A   Mostly Cloudy